Regional Weather Roundup
Issued by NWS Spokane, WA

Home | Current Version | Previous Version | Text Only | Print | Product List | Glossary On
Versions: 1 2 3 4 5 6 7 8 9 10 11 12 13 14 15 16 17 18 19 20 21 22 23 24 25 26 27 28 29 30 31 32 33 34 35 36 37 38 39 40 41 42 43 44 45 46 47 48 49 50
000
NZUS01 KOTX 260000
RWROTX

Eastern Washington/Northern Idaho Roundup
National Weather Service, Spokane WA
400 PM PST SAT FEB 25 2017

Note: "fair" indicated few or no clouds below 12,000 feet with no
significant weather and/or obstructions to visibility.

...Northeast Washington and Northern Idaho Panhandle...

CITY           SKY/WX    TMP DP  RH WIND       PRES   REMARKS
Spokane Intl   CLOUDY    33  22  63 SW13      29.93F WCI  24
Spokane Downto PTSUNNY   35  22  58 SW15      29.96F WCI  25
Coeur d Alene  CLOUDY    32  24  72 S9        29.94F WCI  24
Deer Park      PTSUNNY   30  20  66 SW13      29.95F WCI  20

...Southeast Washington and southern Idaho Panhandle...

CITY           SKY/WX    TMP DP  RH WIND       PRES   REMARKS
Walla Walla    MOSUNNY   43  25  49 W14       30.03F
Pullman/Moscow CLOUDY    33  22  63 W15       29.99F WCI  23
Lowell           N/A     40  23  50 CALM      30.04F

...Columbia Basin...

CITY           SKY/WX    TMP DP  RH WIND       PRES   REMARKS
Ephrata        PTSUNNY   38  24  57 SW8       29.95F
Moses Lake     PTSUNNY   39  23  52 SW14      29.97F
Pasco          SUNNY     46  22  38 SW14      30.04F
Hermiston      MOSUNNY   47  25  42 SW17      30.04F
Pendleton      PTSUNNY   43  28  55 W16G22    30.02F

...East Slopes Cascades...

CITY           SKY/WX    TMP DP  RH WIND       PRES   REMARKS
The Dalles     MOSUNNY   49  28  44 NW14      30.08F
Yakima         PTSUNNY   42  24  49 CALM      30.01F
Ellensburg     PTSUNNY   37  24  59 NW22      29.97F
Wenatchee      PTSUNNY   34  22  61 E6        29.95F WCI  29
Omak           PTSUNNY   30  19  63 S12       29.95F WCI  20
Sunnyside      CLEAR     42  24  49 SW5       30.02F

...Southern British Columbia...

CITY           SKY/WX    TMP DP  RH WIND       PRES   REMARKS

...Western Montana...

CITY           SKY/WX    TMP DP  RH WIND       PRES   REMARKS
Kalispell      CLOUDY    29  17  61 S7        29.83F WCI  22
Missoula       CLOUDY    31  14  49 W16       29.90F WCI  20

...Neighboring Cities...

CITY           SKY/WX    TMP DP  RH WIND       PRES   REMARKS
Seattle        CLOUDY    43  31  62 SW8       30.10F
Portland       PTSUNNY   47  31  53 NW5       30.15F
Boise          PTSUNNY   39  15  37 NW7       30.03F
Great Falls    CLEAR     31   6  35 W26       29.65S WCI  17



USA.gov is the U.S. government's official web portal to all federal, state and local government web resources and services.